Weather History for Watford City, ND

Change the Weather History Date:

Monday, November 19, 2012

  Actual Average (KISN) Record (KISN)
Temperature  
Mean Temperature 34 °F 25 °F  
Max Temperature 46 °F 36 °F 69 °F (1897)
Min Temperature 23 °F 15 °F -24 °F (1896)
Degree Days  
Heating Degree Days 30 40  
Month to date heating degree days 660  
Since 1 July heating degree days 1687  
Cooling Degree Days 0 0  
Month to date cooling degree days 0  
Year to date cooling degree days 456  
Moisture  
Dew Point 27 °F    
Average Humidity 71    
Maximum Humidity 93    
Minimum Humidity 46    
Precipitation  
Precipitation 0.00 in 0.02 in 0.31 in (1996)
Month to date precipitation 0.45  
Year to date precipitation 13.55  
Sea Level Pressure  
Sea Level Pressure 30.01 in    
Wind  
Wind Speed 7 mph (SSW)    
Max Wind Speed 15 mph    
Max Gust Speed 21 mph    
Visibility 10 miles    
Events      
T = Trace of Precipitation, MM = Missing Value Source: NWS Daily Summary

Daily Weather History Graph

Daily Weather History Graph

Search for Another Location

Airport:

Trip Planner

Search our weather history database for the weather conditions in past years. The results will help you decide how hot, cold, wet, or windy it might be!

Date:

Astronomy

Nov. 19, 2012 Rise Set
Actual Time 8:05 AM CST 5:11 PM CST
Civil Twilight 7:31 AM CST 5:45 PM CST
Nautical Twilight 6:53 AM CST 6:23 PM CST
Astronomical Twilight 6:16 AM CST 6:59 PM CST
Moon 12:59 PM CST (11/19) 11:53 PM CST (11/19)
Length of Visible Light 10h 14m
Length of Day
9h 05m
Waxing Crescent, 41% of the Moon is Illuminated
Nov 19
Waxing Crescent
Nov 20
First Quarter
Nov 28
Full
Dec 6
Last Quarter
Dec 13
New

Hourly Weather History & Observations

Time (CST) Temp. Windchill Dew Point Humidity Pressure Visibility Wind Dir Wind Speed Gust Speed Precip Events Conditions
12:15 AM 35.6 °F 29.2 °F 28.4 °F 75% 29.94 in 10.0 mi West 8.1 mph - N/A   Partly Cloudy
12:35 AM 37.4 °F 30.8 °F 28.4 °F 70% 29.95 in 10.0 mi West 9.2 mph - N/A   Mostly Cloudy
12:55 AM 35.6 °F 28.6 °F 28.4 °F 75% 29.95 in 10.0 mi West 9.2 mph - N/A   Mostly Cloudy
1:15 AM 33.8 °F 28.6 °F 28.4 °F 81% 29.96 in 10.0 mi West 5.8 mph - N/A   Clear
1:35 AM 33.8 °F 28.6 °F 28.4 °F 81% 29.97 in 10.0 mi West 5.8 mph - N/A   Scattered Clouds
1:55 AM 32.0 °F 25.6 °F 26.6 °F 80% 29.97 in 10.0 mi SW 6.9 mph - N/A   Scattered Clouds
2:15 AM 32.0 °F 23.6 °F 26.6 °F 80% 29.97 in 10.0 mi WSW 10.4 mph - N/A   Partly Cloudy
2:35 AM 32.0 °F 23.0 °F 26.6 °F 80% 29.99 in 10.0 mi SW 11.5 mph - N/A   Clear
2:55 AM 32.0 °F 23.0 °F 26.6 °F 80% 29.99 in 10.0 mi SW 11.5 mph - N/A   Clear
3:15 AM 28.4 °F 21.2 °F 24.8 °F 86% 30.00 in 10.0 mi SW 6.9 mph - N/A   Scattered Clouds
3:35 AM 28.4 °F 21.2 °F 24.8 °F 86% 30.00 in 10.0 mi SW 6.9 mph - N/A   Scattered Clouds
3:55 AM 28.4 °F 21.2 °F 26.6 °F 93% 30.00 in 10.0 mi SSW 6.9 mph - N/A   Partly Cloudy
4:15 AM 32.0 °F 26.4 °F 26.6 °F 80% 30.01 in 10.0 mi SW 5.8 mph - N/A   Clear
4:35 AM 28.4 °F 20.4 °F 26.6 °F 93% 30.01 in 10.0 mi SW 8.1 mph - N/A   Clear
4:55 AM 32.0 °F 27.5 °F 26.6 °F 80% 30.00 in 10.0 mi SSW 4.6 mph - N/A   Clear
5:15 AM 28.4 °F 23.3 °F 24.8 °F 86% 30.01 in 10.0 mi West 4.6 mph - N/A   Clear
5:35 AM 28.4 °F - 24.8 °F 86% 30.03 in 10.0 mi Calm Calm - N/A   Clear
5:55 AM 26.6 °F - 24.8 °F 93% 30.03 in 10.0 mi Calm Calm - N/A   Clear
6:15 AM 23.0 °F 17.0 °F 19.4 °F 86% 30.03 in 10.0 mi SW 4.6 mph - N/A   Clear
6:35 AM 24.8 °F 17.9 °F 23.0 °F 93% 30.04 in 10.0 mi SSW 5.8 mph - N/A   Clear
6:55 AM 24.8 °F - 23.0 °F 93% 30.04 in 10.0 mi Calm Calm - N/A   Clear
7:35 AM 23.0 °F 13.1 °F 21.2 °F 93% 30.04 in 10.0 mi SW 9.2 mph - N/A   Clear
7:55 AM 24.8 °F 16.1 °F 23.0 °F 93% 30.05 in 10.0 mi SW 8.1 mph - N/A   Clear
8:15 AM 24.8 °F 19.1 °F 21.2 °F 86% 30.06 in 10.0 mi SSW 4.6 mph - N/A   Clear
8:35 AM 24.8 °F 16.1 °F 23.0 °F 93% 30.05 in 10.0 mi SSW 8.1 mph - N/A   Clear
8:55 AM 26.6 °F - 23.0 °F 86% 30.06 in 10.0 mi Calm Calm - N/A   Clear
9:15 AM 26.6 °F 19.1 °F 23.0 °F 86% 30.06 in 10.0 mi WSW 6.9 mph - N/A   Clear
9:35 AM 26.6 °F 20.0 °F 23.0 °F 86% 30.06 in 10.0 mi SSW 5.8 mph - N/A   Clear
9:55 AM 28.4 °F 21.2 °F 24.8 °F 86% 30.06 in 10.0 mi SW 6.9 mph - N/A   Clear
10:15 AM 32.0 °F 28.7 °F 24.8 °F 75% 30.06 in 10.0 mi SSW 3.5 mph - N/A   Clear
10:35 AM 32.0 °F 27.5 °F 26.6 °F 80% 30.07 in 10.0 mi SW 4.6 mph - N/A   Clear
10:55 AM 33.8 °F 30.8 °F 26.6 °F 75% 30.08 in 10.0 mi SW 3.5 mph - N/A   Clear
11:15 AM 35.6 °F - 26.6 °F 70% 30.07 in 10.0 mi Calm Calm - N/A   Clear
11:35 AM 37.4 °F 34.9 °F 28.4 °F 70% 30.07 in 10.0 mi East 3.5 mph - N/A   Clear
11:55 AM 39.2 °F 37.0 °F 30.2 °F 70% 30.07 in 10.0 mi East 3.5 mph - N/A   Clear
12:15 PM 39.2 °F 34.2 °F 30.2 °F 70% 30.06 in 10.0 mi ESE 6.9 mph - N/A   Clear
12:35 PM 41.0 °F 36.4 °F 30.2 °F 65% 30.06 in 10.0 mi ESE 6.9 mph - N/A   Clear
12:55 PM 41.0 °F 37.1 °F 30.2 °F 65% 30.05 in 10.0 mi SE 5.8 mph - N/A   Clear
1:15 PM 44.6 °F 42.2 °F 28.4 °F 53% 30.05 in 10.0 mi SE 4.6 mph - N/A   Clear
1:35 PM 44.6 °F 42.2 °F 28.4 °F 53% 30.05 in 10.0 mi South 4.6 mph - N/A   Clear
1:55 PM 44.6 °F 41.4 °F 28.4 °F 53% 30.05 in 10.0 mi South 5.8 mph - N/A   Clear
2:15 PM 44.6 °F 40.7 °F 28.4 °F 53% 30.04 in 10.0 mi SSE 6.9 mph - N/A   Clear
2:35 PM 46.4 °F 43.5 °F 28.4 °F 50% 30.03 in 10.0 mi SSE 5.8 mph - N/A   Clear
2:55 PM 44.6 °F 40.2 °F 28.4 °F 53% 30.03 in 10.0 mi SSE 8.1 mph - N/A   Clear
3:15 PM 44.6 °F 40.2 °F 30.2 °F 57% 30.02 in 10.0 mi SE 8.1 mph - N/A   Clear
3:35 PM 44.6 °F 40.2 °F 28.4 °F 53% 30.01 in 10.0 mi SSE 8.1 mph - N/A   Clear
3:55 PM 44.6 °F 40.2 °F 28.4 °F 53% 30.01 in 10.0 mi South 8.1 mph - N/A   Clear
4:15 PM 44.6 °F 40.7 °F 28.4 °F 53% 30.01 in 10.0 mi SSE 6.9 mph - N/A   Clear
4:35 PM 41.0 °F 34.7 °F 30.2 °F 65% 30.00 in 10.0 mi SE 10.4 mph - N/A   Clear
4:55 PM 39.2 °F 34.2 °F 30.2 °F 70% 30.01 in 10.0 mi SE 6.9 mph - N/A   Clear
5:15 PM 39.2 °F - 28.4 °F 65% 30.02 in 10.0 mi Calm Calm - N/A   Clear
5:35 PM 37.4 °F - 28.4 °F 70% 30.02 in 10.0 mi Calm Calm - N/A   Clear
5:55 PM 37.4 °F 33.8 °F 28.4 °F 70% 30.02 in 10.0 mi North 4.6 mph - N/A   Clear
6:15 PM 37.4 °F - 28.4 °F 70% 30.02 in 10.0 mi Calm Calm - N/A   Clear
6:35 PM 35.6 °F 28.6 °F 28.4 °F 75% 30.01 in 10.0 mi SE 9.2 mph - N/A   Clear
6:55 PM 37.4 °F 30.3 °F 28.4 °F 70% 30.00 in 10.0 mi SE 10.4 mph - N/A   Clear
7:15 PM 37.4 °F 29.8 °F 26.6 °F 65% 30.00 in 10.0 mi SE 11.5 mph - N/A   Clear
7:35 PM 39.2 °F 32.5 °F 26.6 °F 61% 29.99 in 10.0 mi SSE 10.4 mph - N/A   Clear
7:55 PM 42.8 °F 35.8 °F 26.6 °F 53% 29.99 in 10.0 mi SSE 13.8 mph - N/A   Clear
8:15 PM 44.6 °F 37.8 °F 26.6 °F 49% 29.98 in 10.0 mi SSE 15.0 mph - N/A   Clear
8:35 PM 44.6 °F 37.8 °F 24.8 °F 46% 29.97 in 10.0 mi SSE 15.0 mph 20.7 mph N/A   Clear
9:35 PM 41.0 °F 34.3 °F 26.6 °F 57% 29.97 in 10.0 mi South 11.5 mph - N/A   Clear
9:55 PM 41.0 °F 35.2 °F 26.6 °F 57% 29.97 in 10.0 mi SSW 9.2 mph - N/A   Clear
10:15 PM 37.4 °F 33.8 °F 24.8 °F 60% 29.96 in 10.0 mi SW 4.6 mph - N/A   Clear
10:35 PM 39.2 °F 33.0 °F 24.8 °F 56% 29.94 in 10.0 mi SSW 9.2 mph - N/A   Clear
10:55 PM 41.0 °F 35.2 °F 24.8 °F 53% 29.94 in 10.0 mi SSW 9.2 mph - N/A   Clear
11:15 PM 41.0 °F 35.2 °F 26.6 °F 57% 29.94 in 10.0 mi SSW 9.2 mph - N/A   Clear
11:35 PM 41.0 °F 34.3 °F 26.6 °F 57% 29.93 in 10.0 mi South 11.5 mph - N/A   Clear
11:55 PM 39.2 °F 32.0 °F 26.6 °F 61% 29.93 in 10.0 mi South 11.5 mph - N/A   Clear